FW0153 Weather Reports


time (UTC)temp
F
wind
direction
speed
knots
gust
knots
rain 1hr
in
rain 24hr
in
rain mn
in
humidity
%
barometer
mb
20260902162005 88 122 11.3 0.0 0.00 0.00 0.00 55 1013.0
20260902161505 88 154 11.3 0.0 0.00 0.00 0.00 54 1013.0
20260902161005 88 215 11.3 0.0 0.00 0.00 0.00 55 1013.3
20260902160505 86 161 11.3 0.0 0.00 0.00 0.00 58 1013.3
20260902160007 86 171 20.0 0.0 0.00 0.00 0.00 58 1013.0
20260902155505 86 72 27.8 0.0 0.00 0.00 0.00 57 1013.3
20260902155005 87 119 15.6 0.0 0.00 0.00 0.00 58 1013.3
20260902154505 86 139 3.5 0.0 0.00 0.00 0.00 60 1013.0
20260902154004 86 158 11.3 0.0 0.00 0.00 0.00 60 1013.3
20260902153505 86 125 3.5 0.0 0.00 0.00 0.00 62 1013.0
20260902153005 85 148 23.5 0.0 0.00 0.00 0.00 63 1013.3
20260902152505 84 103 11.3 0.0 0.00 0.00 0.00 64 1013.0
20260902152005 84 176 7.8 0.0 0.00 0.00 0.00 65 1013.0
20260902151711 84 92 11.3 0.0 0.00 0.00 0.00 66 1013.3
20260902151005 84 127 3.5 0.0 0.00 0.00 0.00 67 1013.3
20260902150505 83 197 15.6 0.0 0.00 0.00 0.00 67 1013.0
20260902150005 83 42 20.0 0.0 0.00 0.00 0.00 68 1013.0
20260902145505 83 141 15.6 0.0 0.00 0.00 0.00 69 1013.3
20260902145005 83 166 15.6 0.0 0.00 0.00 0.00 69 1013.3
20260902144504 83 156 7.8 0.0 0.00 0.00 0.00 71 1013.0
20260902144005 83 155 27.8 0.0 0.00 0.00 0.00 71 1013.0
20260902143505 82 134 7.8 0.0 0.00 0.00 0.00 74 1013.3
20260902143005 82 57 3.5 0.0 0.00 0.00 0.00 75 1013.0
20260902142713 82 170 11.3 0.0 0.00 0.00 0.00 75 1013.0
20260902142212 82 162 3.5 0.0 0.00 0.00 0.00 76 1013.3
20260902141505 81 165 7.8 0.0 0.00 0.00 0.00 76 1013.3
20260902141212 82 192 15.6 0.0 0.00 0.00 0.00 76 1013.3
20260902140505 81 164 11.3 0.0 0.00 0.00 0.00 77 1013.0
20260902140212 81 168 11.3 0.0 0.00 0.00 0.00 78 1013.3
20260902135713 80 158 11.3 0.0 0.00 0.00 0.00 80 1013.3
20260902135005 80 194 11.3 0.0 0.00 0.00 0.00 80 1013.0
20260902134505 80 167 11.3 0.0 0.00 0.00 0.00 81 1013.3
20260902134005 80 54 11.3 0.0 0.00 0.00 0.00 81 1013.0
20260902133505 80 114 3.5 0.0 0.00 0.00 0.00 82 1013.0
20260902133005 80 139 11.3 0.0 0.00 0.00 0.00 82 1012.7
20260902132504 80 106 7.8 0.0 0.00 0.00 0.00 82 1013.0
20260902132214 79 165 7.8 0.0 0.00 0.00 0.00 83 1013.0
20260902131504 79 131 0.0 0.0 0.00 0.00 0.00 83 1013.0
20260902131005 79 143 3.5 0.0 0.00 0.00 0.00 84 1012.7
20260902130505 79 47 7.8 0.0 0.00 0.00 0.00 84 1013.0
20260902130005 78 52 3.5 0.0 0.00 0.00 0.00 84 1013.0
20260902125505 78 5 0.0 0.0 0.00 0.00 0.00 85 1012.7
20260902125005 78 104 0.0 0.0 0.00 0.00 0.00 85 1012.7
20260902124505 78 113 0.0 0.0 0.00 0.00 0.00 85 1012.3
20260902124005 78 32 0.0 0.0 0.00 0.00 0.00 85 1012.3
20260902123505 78 166 7.8 0.0 0.00 0.00 0.00 85 1012.3
20260902123213 78 89 3.5 0.0 0.00 0.00 0.00 85 1012.3
20260902122712 78 153 3.5 0.0 0.00 0.00 0.00 85 1012.3
20260902122005 78 174 15.6 0.0 0.00 0.00 0.00 85 1012.3
20260902121505 78 109 0.0 0.0 0.00 0.00 0.00 85 1012.3
20260902121005 78 131 3.5 0.0 0.00 0.00 0.00 85 1012.3
20260902120712 78 58 0.0 0.0 0.00 0.00 0.00 85 1012.3
20260902120005 78 93 0.0 0.0 0.00 0.00 0.00 84 1012.3
20260902115505 78 158 11.3 0.0 0.00 0.00 0.00 85 1012.3
20260902115005 78 124 3.5 0.0 0.00 0.00 0.00 84 1012.3
20260902114505 78 49 0.0 0.0 0.00 0.00 0.00 84 1012.3
20260902114213 78 137 0.0 0.0 0.00 0.00 0.00 84 1012.3
20260902113505 78 79 0.0 0.0 0.00 0.00 0.00 85 1012.3
20260902113005 78 151 3.5 0.0 0.00 0.00 0.00 84 1012.3
20260902112505 78 144 11.3 0.0 0.00 0.00 0.00 84 1012.3
20260902112005 78 179 3.5 0.0 0.00 0.00 0.00 84 1012.3
20260902111504 78 145 0.0 0.0 0.00 0.00 0.00 84 1012.3
20260902111213 78 106 0.0 0.0 0.00 0.00 0.00 84 1012.0
20260902110505 78 138 0.0 0.0 0.00 0.00 0.00 84 1012.3
20260902110007 78 108 0.0 0.0 0.00 0.00 0.00 84 1012.0
20260902105505 78 48 7.8 0.0 0.00 0.00 0.00 84 1012.3
20260902105005 78 114 3.5 0.0 0.00 0.00 0.00 83 1012.3
20260902104505 79 107 0.0 0.0 0.00 0.00 0.00 83 1012.3
20260902104005 78 66 3.5 0.0 0.00 0.00 0.00 83 1012.0
20260902103505 78 181 11.3 0.0 0.00 0.00 0.00 83 1012.3
20260902103004 78 152 3.5 0.0 0.00 0.00 0.00 83 1012.0
20260902102505 78 66 0.0 0.0 0.00 0.00 0.00 83 1012.3
20260902102005 79 66 3.5 0.0 0.00 0.00 0.00 83 1012.0
20260902101505 79 74 3.5 0.0 0.00 0.00 0.00 82 1012.0
20260902101005 79 139 3.5 0.0 0.00 0.00 0.00 82 1012.3
20260902100505 79 131 7.8 0.0 0.00 0.00 0.00 82 1012.3
20260902100005 79 138 7.8 0.0 0.00 0.00 0.00 82 1012.0
20260902095505 79 66 15.6 0.0 0.00 0.00 0.00 82 1012.0
20260902095005 79 77 3.5 0.0 0.00 0.00 0.00 82 1012.3
20260902094505 79 127 3.5 0.0 0.00 0.00 0.00 82 1012.0
20260902094004 79 81 11.3 0.0 0.00 0.00 0.00 82 1012.3
20260902093505 79 145 3.5 0.0 0.00 0.00 0.00 82 1012.3
20260902093005 79 100 7.8 0.0 0.00 0.00 0.00 82 1012.3
20260902092505 79 110 0.0 0.0 0.00 0.00 0.00 81 1012.3
20260902092005 79 116 3.5 0.0 0.00 0.00 0.00 81 1012.3
20260902091711 79 82 7.8 0.0 0.00 0.00 0.00 81 1012.3
20260902091005 79 176 15.6 0.0 0.00 0.00 0.00 81 1012.3
20260902090711 79 132 3.5 0.0 0.00 0.00 0.00 81 1012.3
20260902090005 79 101 7.8 0.0 0.00 0.00 0.00 81 1012.3
20260902085505 79 164 7.8 0.0 0.00 0.00 0.00 81 1012.3
20260902085005 79 198 11.3 0.0 0.00 0.00 0.00 80 1012.3
20260902084505 79 112 11.3 0.0 0.00 0.00 0.00 80 1012.3
20260902084005 79 160 11.3 0.0 0.00 0.00 0.00 80 1012.3
20260902083505 79 192 7.8 0.0 0.00 0.00 0.00 80 1012.3
20260902083005 79 144 3.5 0.0 0.00 0.00 0.00 80 1012.3
20260902082505 79 136 3.5 0.0 0.00 0.00 0.00 80 1012.3
20260902081005 80 141 7.8 0.0 0.00 0.00 0.00 80 1012.3
20260902080713 80 127 11.3 0.0 0.00 0.00 0.00 80 1012.3
20260902080004 79 170 7.8 0.0 0.00 0.00 0.00 80 1012.3
20260902075505 80 162 3.5 0.0 0.00 0.00 0.00 80 1012.7
20260902075005 80 175 11.3 0.0 0.00 0.00 0.00 80 1013.0
20260902074505 80 163 7.8 0.0 0.00 0.00 0.00 80 1012.7
20260902074005 80 142 3.5 0.0 0.00 0.00 0.00 80 1012.7
20260902073505 80 144 11.3 0.0 0.00 0.00 0.00 80 1012.7
20260902073005 80 331 7.8 0.0 0.00 0.00 0.00 80 1012.7
20260902072505 80 167 7.8 0.0 0.00 0.00 0.00 80 1013.0
20260902072005 80 48 3.5 0.0 0.00 0.00 0.00 80 1013.0
20260902071712 80 134 3.5 0.0 0.00 0.00 0.00 80 1013.0
20260902071211 80 141 3.5 0.0 0.00 0.00 0.00 80 1013.0
20260902070505 80 8 15.6 0.0 0.00 0.00 0.00 80 1013.0
20260902070006 80 80 3.5 0.0 0.00 0.00 0.00 79 1013.0
20260902065505 80 93 3.5 0.0 0.00 0.00 0.00 79 1013.0
20260902065005 80 69 7.8 0.0 0.00 0.00 0.00 80 1013.0
20260902064505 80 138 7.8 0.0 0.00 0.00 0.00 79 1013.3
20260902064213 80 158 3.5 0.0 0.00 0.00 0.00 79 1013.3
20260902063505 80 149 11.3 0.0 0.00 0.00 0.00 79 1013.3
20260902063005 80 135 3.5 0.0 0.00 0.00 0.00 79 1013.3
20260902062505 80 108 3.5 0.0 0.00 0.00 0.00 79 1013.0
20260902062213 80 269 7.8 0.0 0.00 0.00 0.00 79 1013.3
20260902061004 80 133 3.5 0.0 0.00 0.00 0.00 79 1013.0
20260902060505 80 94 7.8 0.0 0.00 0.00 0.00 79 1013.0
20260902060005 80 111 3.5 0.0 0.00 0.00 0.00 79 1013.3
20260902055505 80 78 3.5 0.0 0.00 0.00 0.00 79 1013.3
20260902055005 80 138 0.0 0.0 0.00 0.00 0.00 79 1013.3
20260902054505 80 1 7.8 0.0 0.00 0.00 0.00 79 1013.3
20260902054005 80 355 7.8 0.0 0.00 0.00 0.00 79 1013.3
20260902053505 80 124 3.5 0.0 0.00 0.00 0.00 79 1013.3
20260902053005 80 147 3.5 0.0 0.00 0.00 0.00 79 1013.3
20260902052505 80 105 11.3 0.0 0.00 0.00 0.00 79 1013.3
20260902052005 80 83 3.5 0.0 0.00 0.00 0.00 79 1013.3
20260902051505 80 42 20.0 0.0 0.00 0.00 0.00 79 1013.3
20260902051005 80 204 7.8 0.0 0.00 0.00 0.00 79 1013.3
20260902050505 80 88 7.8 0.0 0.00 0.00 0.00 78 1013.3
20260902045713 80 135 3.5 0.0 0.00 0.00 0.00 78 1013.3
20260902045004 80 114 7.8 0.0 0.00 0.00 0.00 78 1013.3
20260902044505 80 117 11.3 0.0 0.00 0.00 0.00 78 1013.3
20260902044005 80 82 11.3 0.0 0.00 0.00 0.00 78 1013.3
20260902043505 80 110 7.8 0.0 0.00 0.00 0.00 78 1013.3
20260902043005 80 57 3.5 0.0 0.00 0.00 0.00 77 1013.3
20260902042505 80 162 15.6 0.0 0.00 0.00 0.00 77 1013.3
20260902042005 80 189 23.5 0.0 0.00 0.00 0.00 77 1013.3
20260902041505 80 124 0.0 0.0 0.00 0.00 0.00 76 1013.3
20260902041005 80 156 3.5 0.0 0.00 0.00 0.00 76 1013.3
20260902040504 80 73 7.8 0.0 0.00 0.00 0.00 76 1013.3
20260902040005 80 70 11.3 0.0 0.00 0.00 0.00 76 1013.0
20260902035505 80 56 7.8 0.0 0.00 0.00 0.00 76 1013.0
20260902035005 80 23 7.8 0.0 0.00 0.00 0.00 76 1013.0
20260902034505 80 148 7.8 0.0 0.00 0.00 0.00 76 1012.7
20260902034212 80 58 11.3 0.0 0.00 0.00 0.00 76 1013.3
20260902033505 81 191 11.3 0.0 0.00 0.00 0.00 75 1012.7
20260902033005 81 123 3.5 0.0 0.00 0.00 0.00 75 1013.0
20260902032505 81 57 11.3 0.0 0.00 0.00 0.00 74 1012.7
20260902032005 81 103 20.0 0.0 0.00 0.00 0.00 74 1012.7
20260902031505 81 71 3.5 0.0 0.00 0.00 0.00 74 1012.7
20260902031005 81 52 3.5 0.0 0.00 0.00 0.00 74 1012.3
20260902030505 81 41 3.5 0.0 0.00 0.00 0.00 73 1012.3
20260902030004 81 95 15.6 0.0 0.00 0.00 0.00 73 1012.3
20260902025505 81 69 20.0 0.0 0.00 0.00 0.00 72 1012.3
20260902025005 82 133 15.6 0.0 0.00 0.00 0.00 72 1012.3
20260902024505 82 184 7.8 0.0 0.00 0.00 0.00 71 1011.6
20260902024005 82 87 7.8 0.0 0.00 0.00 0.00 71 1011.6
20260902023505 82 195 11.3 0.0 0.00 0.00 0.00 70 1011.6
20260902023005 82 74 7.8 0.0 0.00 0.00 0.00 70 1011.6
20260902022505 83 28 11.3 0.0 0.00 0.00 0.00 69 1011.6
20260902022005 83 62 7.8 0.0 0.00 0.00 0.00 68 1011.6
20260902021505 83 62 15.6 0.0 0.00 0.00 0.00 67 1011.3
20260902021005 83 16 3.5 0.0 0.00 0.00 0.00 66 1011.3
20260902020505 83 67 11.3 0.0 0.00 0.00 0.00 64 1011.0
20260902020005 83 125 3.5 0.0 0.00 0.00 0.00 63 1011.3
20260902015505 83 24 7.8 0.0 0.00 0.00 0.00 63 1011.0
20260902015005 83 230 11.3 0.0 0.00 0.00 0.00 62 1011.0
20260902014504 84 36 11.3 0.0 0.00 0.00 0.00 61 1010.6
20260902014005 84 135 3.5 0.0 0.00 0.00 0.00 59 1010.6
20260902013505 84 26 11.3 0.0 0.00 0.00 0.00 59 1010.6
20260902013005 85 62 11.3 0.0 0.00 0.00 0.00 58 1010.3
20260902012505 85 61 20.0 0.0 0.00 0.00 0.00 56 1010.6
20260902012005 85 62 3.5 0.0 0.00 0.00 0.00 56 1010.6
20260902011505 85 148 7.8 0.0 0.00 0.00 0.00 54 1010.6
20260902011005 86 84 7.8 0.0 0.00 0.00 0.00 53 1010.3
20260902010712 86 68 3.5 0.0 0.00 0.00 0.00 53 1010.3
20260902010005 86 85 23.5 0.0 0.00 0.00 0.00 52 1010.3
20260902005505 86 108 7.8 0.0 0.00 0.00 0.00 51 1010.3
20260902005005 86 112 7.8 0.0 0.00 0.00 0.00 51 1009.9
20260902004505 86 76 7.8 0.0 0.00 0.00 0.00 50 1009.9
20260902004213 86 75 11.3 0.0 0.00 0.00 0.00 49 1009.9
20260902003712 87 72 11.3 0.0 0.00 0.00 0.00 48 1009.9
20260902003213 87 147 20.0 0.0 0.00 0.00 0.00 46 1009.6
20260902002505 88 69 3.5 0.0 0.00 0.00 0.00 44 1009.6
20260902002213 88 54 7.8 0.0 0.00 0.00 0.00 44 1009.6
20260902001505 88 40 11.3 0.0 0.00 0.00 0.00 44 1009.6
20260902001005 88 43 7.8 0.0 0.00 0.00 0.00 43 1009.6
20260902000711 89 64 7.8 0.0 0.00 0.00 0.00 41 1009.6
20260902000213 89 88 11.3 0.0 0.00 0.00 0.00 40 1009.3
20260901235505 89 59 7.8 0.0 0.00 0.00 0.00 39 1009.3
20260901235005 89 108 7.8 0.0 0.00 0.00 0.00 39 1009.3
20260901234505 89 64 15.6 0.0 0.00 0.00 0.00 38 1009.3
20260901234005 89 74 11.3 0.0 0.00 0.00 0.00 38 1009.3
20260901233713 90 122 7.8 0.0 0.00 0.00 0.00 38 1009.3
20260901233213 90 138 7.8 0.0 0.00 0.00 0.00 38 1008.9
20260901232505 91 76 3.5 0.0 0.00 0.00 0.00 37 1009.3
20260901232005 91 191 7.8 0.0 0.00 0.00 0.00 37 1008.9
20260901231505 91 42 15.6 0.0 0.00 0.00 0.00 37 1009.3
20260901231005 92 100 15.6 0.0 0.00 0.00 0.00 37 1008.9
20260901230505 92 21 3.5 0.0 0.00 0.00 0.00 37 1009.3
20260901230212 92 137 7.8 0.0 0.00 0.00 0.00 37 1008.9
20260901225505 92 81 11.3 0.0 0.00 0.00 0.00 36 1008.9
20260901225004 92 75 11.3 0.0 0.00 0.00 0.00 36 1008.9
20260901224505 92 24 11.3 0.0 0.00 0.00 0.00 37 1008.9
20260901224005 92 65 7.8 0.0 0.00 0.00 0.00 36 1008.9
20260901223505 92 114 15.6 0.0 0.00 0.00 0.00 37 1008.9
20260901223006 93 128 11.3 0.0 0.00 0.00 0.00 36 1008.9
20260901222505 92 149 3.5 0.0 0.00 0.00 0.00 35 1008.9
20260901222005 93 149 11.3 0.0 0.00 0.00 0.00 35 1008.9
20260901221505 93 137 7.8 0.0 0.00 0.00 0.00 35 1008.9
20260901221005 93 113 15.6 0.0 0.00 0.00 0.00 35 1008.9
20260901220505 93 58 7.8 0.0 0.00 0.00 0.00 35 1009.3
20260901220005 94 41 3.5 0.0 0.00 0.00 0.00 34 1008.9
20260901215713 93 174 7.8 0.0 0.00 0.00 0.00 34 1009.3
20260901215005 93 86 11.3 0.0 0.00 0.00 0.00 34 1008.9
20260901214505 93 149 20.0 0.0 0.00 0.00 0.00 33 1008.9
20260901214005 93 158 7.8 0.0 0.00 0.00 0.00 37 1008.9
20260901213505 93 53 11.3 0.0 0.00 0.00 0.00 34 1009.3
20260901213005 94 110 15.6 0.0 0.00 0.00 0.00 33 1009.3
20260901212712 94 78 11.3 0.0 0.00 0.00 0.00 32 1008.9
20260901212005 95 50 7.8 0.0 0.00 0.00 0.00 32 1009.3
20260901211712 95 125 3.5 0.0 0.00 0.00 0.00 32 1008.9
20260901211212 95 102 15.6 0.0 0.00 0.00 0.00 31 1009.3
20260901210505 95 11 3.5 0.0 0.00 0.00 0.00 30 1009.6
20260901210005 95 133 3.5 0.0 0.00 0.00 0.00 30 1009.6
20260901205505 95 164 20.0 0.0 0.00 0.00 0.00 30 1009.6
20260901205005 94 191 15.6 0.0 0.00 0.00 0.00 32 1009.6
20260901204505 93 149 7.8 0.0 0.00 0.00 0.00 32 1009.6
20260901204213 94 35 7.8 0.0 0.00 0.00 0.00 32 1009.9
20260901203505 93 172 3.5 0.0 0.00 0.00 0.00 32 1009.6
20260901203004 94 84 20.0 0.0 0.00 0.00 0.00 32 1010.3
20260901202505 93 125 7.8 0.0 0.00 0.00 0.00 34 1010.3
20260901202005 93 134 11.3 0.0 0.00 0.00 0.00 34 1010.3
20260901201505 95 40 3.5 0.0 0.00 0.00 0.00 33 1009.9
20260901201005 93 114 3.5 0.0 0.00 0.00 0.00 35 1010.3
20260901200505 94 92 7.8 0.0 0.00 0.00 0.00 35 1010.6
20260901200211 93 39 7.8 0.0 0.00 0.00 0.00 35 1010.6
20260901195505 94 101 7.8 0.0 0.00 0.00 0.00 35 1010.6
20260901195005 94 42 11.3 0.0 0.00 0.00 0.00 34 1010.6
20260901194712 93 139 7.8 0.0 0.00 0.00 0.00 37 1011.0
20260901194005 93 31 15.6 0.0 0.00 0.00 0.00 37 1011.0
20260901193505 93 310 11.3 0.0 0.00 0.00 0.00 36 1011.0
20260901193005 93 164 11.3 0.0 0.00 0.00 0.00 36 1011.0
20260901192505 93 146 3.5 0.0 0.00 0.00 0.00 36 1011.0
20260901192005 94 167 3.5 0.0 0.00 0.00 0.00 36 1011.0
20260901191505 93 151 15.6 0.0 0.00 0.00 0.00 36 1011.0
20260901191004 93 113 7.8 0.0 0.00 0.00 0.00 35 1011.3
20260901190505 92 126 3.5 0.0 0.00 0.00 0.00 36 1011.3
20260901190213 93 149 3.5 0.0 0.00 0.00 0.00 37 1011.3
20260901185505 93 148 20.0 0.0 0.00 0.00 0.00 37 1011.6
20260901185005 92 30 7.8 0.0 0.00 0.00 0.00 38 1011.6
20260901184505 92 104 0.0 0.0 0.00 0.00 0.00 38 1011.6
20260901184005 92 125 15.6 0.0 0.00 0.00 0.00 38 1011.6
20260901183505 92 142 11.3 0.0 0.00 0.00 0.00 39 1011.6
20260901183212 92 166 11.3 0.0 0.00 0.00 0.00 39 1011.6
20260901182713 92 62 7.8 0.0 0.00 0.00 0.00 38 1012.0
20260901182005 91 58 11.3 0.0 0.00 0.00 0.00 41 1012.0
20260901181505 91 111 7.8 0.0 0.00 0.00 0.00 41 1012.3
20260901181005 91 175 3.5 0.0 0.00 0.00 0.00 41 1012.0
20260901180505 91 149 7.8 0.0 0.00 0.00 0.00 42 1012.3
20260901180005 91 49 15.6 0.0 0.00 0.00 0.00 43 1012.3
20260901175505 90 146 3.5 0.0 0.00 0.00 0.00 42 1012.7
20260901175005 90 175 7.8 0.0 0.00 0.00 0.00 43 1012.7
20260901174505 91 31 15.6 0.0 0.00 0.00 0.00 42 1012.3
20260901174212 91 166 7.8 0.0 0.00 0.00 0.00 43 1012.7
20260901173505 89 152 7.8 0.0 0.00 0.00 0.00 46 1012.7
20260901173005 90 159 0.0 0.0 0.00 0.00 0.00 44 1012.7
20260901172713 90 148 11.3 0.0 0.00 0.00 0.00 46 1012.7
20260901172005 89 41 7.8 0.0 0.00 0.00 0.00 46 1012.7
20260901171505 89 144 11.3 0.0 0.00 0.00 0.00 45 1013.0
20260901171005 89 149 20.0 0.0 0.00 0.00 0.00 45 1012.7
20260901170504 89 130 7.8 0.0 0.00 0.00 0.00 48 1013.0
20260901170005 89 126 11.3 0.0 0.00 0.00 0.00 45 1013.0
20260901165505 89 164 3.5 0.0 0.00 0.00 0.00 49 1013.3
20260901165212 89 114 0.0 0.0 0.00 0.00 0.00 50 1013.3
20260901164505 89 86 15.6 0.0 0.00 0.00 0.00 49 1013.3
20260901164005 88 175 7.8 0.0 0.00 0.00 0.00 54 1013.3
20260901163713 88 164 7.8 0.0 0.00 0.00 0.00 52 1013.3
20260901163005 89 52 11.3 0.0 0.00 0.00 0.00 53 1013.3
20260901162504 87 96 0.0 0.0 0.00 0.00 0.00 55 1013.0
20260901162212 87 104 11.3 0.0 0.00 0.00 0.00 54 1013.3